| time (UTC) | temp F | wind direction | speed knots | gust knots | rain 1hr in | rain 24hr in | rain mn in | humidity % | barometer mb |
| 20260506095520 | 67 | 188 | 4.3 | 7.0 | 0.00 | 0.01 | 0.00 | 65 | 1009.9 |
| 20260506094525 | 67 | 191 | 5.2 | 10.4 | 0.00 | 0.01 | 0.00 | 65 | 1009.8 |
| 20260506093529 | 68 | 221 | 5.2 | 7.8 | 0.00 | 0.01 | 0.00 | 64 | 1010.0 |
| 20260506092557 | 68 | 216 | 3.5 | 6.1 | 0.00 | 0.01 | 0.00 | 63 | 1010.0 |
| 20260506091521 | 68 | 192 | 6.1 | 8.7 | 0.00 | 0.01 | 0.00 | 62 | 1010.0 |
| 20260506090526 | 68 | 178 | 5.2 | 9.6 | 0.00 | 0.01 | 0.00 | 62 | 1010.1 |
| 20260506085531 | 69 | 213 | 5.2 | 9.6 | 0.00 | 0.01 | 0.00 | 61 | 1010.5 |
| 20260506084517 | 69 | 206 | 4.3 | 7.0 | 0.00 | 0.01 | 0.00 | 60 | 1010.4 |
| 20260506083522 | 69 | 186 | 6.1 | 10.4 | 0.00 | 0.01 | 0.00 | 59 | 1010.5 |
| 20260506082527 | 69 | 181 | 5.2 | 13.0 | 0.00 | 0.01 | 0.00 | 58 | 1010.5 |
| 20260506081532 | 69 | 215 | 5.2 | 8.7 | 0.00 | 0.01 | 0.00 | 58 | 1010.4 |
| 20260506080519 | 70 | 219 | 7.0 | 11.3 | 0.00 | 0.01 | 0.00 | 57 | 1010.4 |
| 20260506072519 | 70 | 197 | 6.1 | 7.8 | 0.00 | 0.01 | 0.00 | 57 | 1010.6 |
| 20260506071524 | 70 | 210 | 5.2 | 7.8 | 0.00 | 0.01 | 0.00 | 57 | 1010.7 |
| 20260506070529 | 70 | 182 | 4.3 | 7.0 | 0.00 | 0.01 | 0.00 | 56 | 1010.8 |
| 20260506061517 | 0 | 0.0 | 0.0 | 0.00 | 0.01 | 0.00 | 1011.5 | ||
| 20260506060523 | 71 | 186 | 6.1 | 10.4 | 0.00 | 0.01 | 0.00 | 54 | 1011.4 |
| 20260506050532 | 71 | 168 | 5.2 | 7.8 | 0.00 | 0.01 | 0.00 | 52 | 1012.2 |
| 20260506044524 | 70 | 206 | 6.1 | 9.6 | 0.00 | 0.01 | 0.00 | 52 | 1012.1 |
| 20260506043529 | 70 | 161 | 4.3 | 6.1 | 0.00 | 0.01 | 0.00 | 52 | 1012.2 |
| 20260506042535 | 71 | 206 | 5.2 | 8.7 | 0.00 | 0.01 | 0.00 | 51 | 1012.1 |
| 20260506041520 | 71 | 202 | 3.5 | 6.1 | 0.00 | 0.01 | 0.00 | 51 | 1012.1 |
| 20260506040525 | 71 | 226 | 4.3 | 6.1 | 0.00 | 0.01 | 0.00 | 51 | 1012.0 |
| 20260506035524 | 71 | 194 | 3.5 | 6.1 | 0.00 | 0.01 | 0.01 | 50 | 1012.0 |
| 20260506034516 | 71 | 206 | 3.5 | 5.2 | 0.00 | 0.01 | 0.01 | 50 | 1012.2 |
| 20260506033521 | 71 | 207 | 3.5 | 5.2 | 0.00 | 0.01 | 0.01 | 49 | 1012.0 |
| 20260506032520 | 72 | 197 | 4.3 | 6.1 | 0.00 | 0.01 | 0.01 | 48 | 1011.9 |
| 20260506031519 | 72 | 198 | 5.2 | 8.7 | 0.00 | 0.01 | 0.01 | 47 | 1012.0 |
| 20260506030517 | 72 | 196 | 5.2 | 7.8 | 0.00 | 0.01 | 0.01 | 47 | 1012.0 |
| 20260506025517 | 72 | 200 | 5.2 | 8.7 | 0.00 | 0.01 | 0.01 | 47 | 1012.1 |
| 20260506024547 | 72 | 184 | 4.3 | 7.8 | 0.00 | 0.01 | 0.01 | 47 | 1012.1 |
| 20260506023532 | 72 | 184 | 4.3 | 8.7 | 0.00 | 0.01 | 0.01 | 47 | 1012.1 |
| 20260506022519 | 72 | 179 | 4.3 | 7.0 | 0.00 | 0.01 | 0.01 | 47 | 1012.2 |
| 20260506021523 | 72 | 206 | 5.2 | 10.4 | 0.00 | 0.01 | 0.01 | 47 | 1012.2 |
| 20260506020529 | 72 | 177 | 6.1 | 8.7 | 0.00 | 0.01 | 0.01 | 47 | 1012.1 |
| 20260506015533 | 73 | 176 | 5.2 | 7.8 | 0.00 | 0.01 | 0.01 | 47 | 1011.9 |
| 20260506014520 | 73 | 167 | 6.1 | 9.6 | 0.00 | 0.01 | 0.01 | 47 | 1011.9 |
| 20260506013524 | 72 | 185 | 3.5 | 6.1 | 0.00 | 0.01 | 0.01 | 48 | 1011.8 |
| 20260506012529 | 73 | 214 | 4.3 | 7.0 | 0.00 | 0.01 | 0.01 | 47 | 1011.6 |
| 20260506011516 | 73 | 183 | 6.1 | 9.6 | 0.00 | 0.01 | 0.01 | 48 | 1011.5 |
| 20260506010541 | 73 | 210 | 3.5 | 7.0 | 0.00 | 0.01 | 0.01 | 49 | 1011.5 |
| 20260506005545 | 73 | 181 | 2.6 | 6.1 | 0.00 | 0.01 | 0.01 | 49 | 1011.5 |
| 20260506004530 | 73 | 195 | 2.6 | 5.2 | 0.00 | 0.01 | 0.01 | 49 | 1011.4 |
| 20260506003517 | 74 | 197 | 3.5 | 5.2 | 0.00 | 0.01 | 0.01 | 48 | 1011.2 |
| 20260506002542 | 74 | 183 | 4.3 | 6.1 | 0.00 | 0.01 | 0.01 | 47 | 1011.1 |
| 20260506001526 | 75 | 188 | 6.1 | 9.6 | 0.00 | 0.01 | 0.01 | 47 | 1011.1 |
| 20260506000611 | 76 | 180 | 5.2 | 7.0 | 0.00 | 0.01 | 0.01 | 46 | 1011.0 |
| 20260505235538 | 76 | 196 | 4.3 | 9.6 | 0.00 | 0.01 | 0.01 | 47 | 1010.7 |
| 20260505234524 | 76 | 183 | 6.1 | 7.8 | 0.00 | 0.01 | 0.01 | 47 | 1010.7 |
| 20260505233528 | 76 | 173 | 6.1 | 8.7 | 0.00 | 0.01 | 0.01 | 47 | 1010.6 |
| 20260505232554 | 77 | 178 | 6.1 | 10.4 | 0.00 | 0.01 | 0.01 | 46 | 1010.5 |
| 20260505231519 | 77 | 237 | 5.2 | 7.0 | 0.00 | 0.01 | 0.01 | 46 | 1010.5 |
| 20260505230524 | 77 | 173 | 7.8 | 12.2 | 0.00 | 0.01 | 0.01 | 46 | 1010.5 |
| 20260505225530 | 77 | 186 | 5.2 | 7.8 | 0.00 | 0.01 | 0.01 | 47 | 1010.4 |
| 20260505224516 | 78 | 176 | 6.1 | 11.3 | 0.00 | 0.01 | 0.01 | 46 | 1010.5 |
| 20260505223541 | 78 | 225 | 5.2 | 6.1 | 0.00 | 0.01 | 0.01 | 43 | 1010.5 |
| 20260505222525 | 79 | 183 | 6.1 | 9.6 | 0.00 | 0.01 | 0.01 | 42 | 1010.4 |
| 20260505221529 | 79 | 218 | 7.8 | 13.0 | 0.00 | 0.01 | 0.01 | 41 | 1010.4 |
| 20260505220518 | 80 | 208 | 7.0 | 12.2 | 0.00 | 0.01 | 0.01 | 41 | 1010.5 |
| 20260505215521 | 80 | 177 | 6.1 | 8.7 | 0.00 | 0.01 | 0.01 | 41 | 1010.4 |
| 20260505214526 | 81 | 197 | 7.8 | 12.2 | 0.00 | 0.01 | 0.01 | 41 | 1010.4 |
| 20260505213531 | 82 | 177 | 7.0 | 13.0 | 0.00 | 0.01 | 0.01 | 42 | 1010.4 |
| 20260505212518 | 82 | 212 | 7.8 | 15.6 | 0.00 | 0.01 | 0.01 | 43 | 1010.4 |
| 20260505211523 | 82 | 158 | 7.8 | 13.0 | 0.00 | 0.01 | 0.01 | 43 | 1010.4 |
| 20260505210527 | 83 | 215 | 6.1 | 11.3 | 0.00 | 0.01 | 0.01 | 43 | 1010.3 |
| 20260505205532 | 83 | 166 | 7.0 | 10.4 | 0.00 | 0.01 | 0.01 | 43 | 1010.5 |
| 20260505204520 | 83 | 215 | 5.2 | 8.7 | 0.00 | 0.01 | 0.01 | 44 | 1010.5 |
| 20260505203524 | 83 | 270 | 7.8 | 7.8 | 0.00 | 0.01 | 0.01 | 45 | 1010.5 |
| 20260505202528 | 82 | 197 | 6.1 | 10.4 | 0.00 | 0.01 | 0.01 | 45 | 1010.6 |
| 20260505201015 | 82 | 192 | 7.8 | 14.8 | 0.00 | 0.01 | 0.01 | 46 | 1010.8 |
| 20260505200020 | 83 | 162 | 7.0 | 11.3 | 0.00 | 0.01 | 0.01 | 46 | 1010.9 |
| 20260505195025 | 82 | 190 | 9.6 | 12.2 | 0.00 | 0.01 | 0.01 | 47 | 1011.0 |
| 20260505194030 | 81 | 189 | 7.8 | 12.2 | 0.00 | 0.01 | 0.01 | 48 | 1011.0 |
| 20260505193016 | 82 | 203 | 7.8 | 13.0 | 0.00 | 0.01 | 0.01 | 48 | 1011.3 |
| 20260505192021 | 82 | 177 | 6.1 | 10.4 | 0.00 | 0.01 | 0.01 | 47 | 1011.3 |
| 20260505191047 | 81 | 176 | 6.1 | 10.4 | 0.00 | 0.01 | 0.01 | 47 | 1011.5 |
| 20260505190030 | 82 | 178 | 7.0 | 10.4 | 0.00 | 0.01 | 0.01 | 47 | 1011.5 |
| 20260505185022 | 82 | 206 | 8.7 | 13.9 | 0.00 | 0.01 | 0.01 | 47 | 1011.6 |
| 20260505184022 | 81 | 189 | 6.1 | 9.6 | 0.00 | 0.01 | 0.01 | 49 | 1011.6 |
| 20260505183028 | 83 | 232 | 7.8 | 13.0 | 0.00 | 0.01 | 0.01 | 47 | 1011.7 |
| 20260505182031 | 83 | 224 | 6.1 | 8.7 | 0.00 | 0.01 | 0.01 | 47 | 1011.9 |
| 20260505181039 | 83 | 235 | 7.0 | 11.3 | 0.00 | 0.01 | 0.01 | 47 | 1012.1 |
| 20260505180023 | 81 | 234 | 7.8 | 13.9 | 0.00 | 0.01 | 0.01 | 47 | 1012.0 |
| 20260505175027 | 82 | 225 | 6.1 | 8.7 | 0.00 | 0.01 | 0.01 | 47 | 1012.1 |
| 20260505174026 | 83 | 233 | 6.1 | 12.2 | 0.00 | 0.01 | 0.01 | 48 | 1012.1 |
| 20260505173039 | 80 | 199 | 7.8 | 13.0 | 0.00 | 0.01 | 0.01 | 47 | 1012.1 |
| 20260505172024 | 82 | 211 | 5.2 | 7.8 | 0.00 | 0.01 | 0.01 | 48 | 1012.2 |
| 20260505171044 | 82 | 270 | 9.6 | 13.0 | 0.00 | 0.01 | 0.01 | 48 | 1012.4 |
| 20260505170016 | 82 | 199 | 7.8 | 11.3 | 0.00 | 0.01 | 0.01 | 47 | 1012.7 |
| 20260505165041 | 81 | 220 | 7.0 | 9.6 | 0.00 | 0.01 | 0.01 | 48 | 1012.9 |
| 20260505164019 | 81 | 218 | 7.0 | 11.3 | 0.00 | 0.01 | 0.01 | 49 | 1013.0 |
| 20260505163038 | 80 | 231 | 8.7 | 13.9 | 0.00 | 0.01 | 0.01 | 49 | 1013.2 |
| 20260505162017 | 80 | 248 | 9.6 | 13.9 | 0.00 | 0.01 | 0.01 | 50 | 1013.2 |
| 20260505161015 | 80 | 247 | 9.6 | 13.9 | 0.00 | 0.01 | 0.01 | 50 | 1013.3 |
| 20260505153024 | 78 | 226 | 7.8 | 10.4 | 0.01 | 0.01 | 0.01 | 55 | 1013.5 |
| 20260505152027 | 0 | 113 | 6.1 | 6.1 | 0.01 | 0.01 | 0.01 | 1013.7 | |
| 20260505151032 | 77 | 235 | 7.8 | 12.2 | 0.01 | 0.01 | 0.01 | 56 | 1013.5 |
| 20260505125028 | 70 | 209 | 7.0 | 8.7 | 0.00 | 0.00 | 0.00 | 60 | 1013.9 |
| 20260505124033 | 70 | 211 | 5.2 | 10.4 | 0.00 | 0.00 | 0.00 | 61 | 1013.9 |
| 20260505123019 | 69 | 198 | 4.3 | 7.0 | 0.00 | 0.00 | 0.00 | 63 | 1013.9 |
| 20260505122025 | 68 | 161 | 4.3 | 6.1 | 0.00 | 0.00 | 0.00 | 65 | 1014.0 |
| 20260505121029 | 67 | 224 | 3.5 | 7.0 | 0.00 | 0.00 | 0.00 | 67 | 1014.0 |
| 20260505120015 | 66 | 236 | 4.3 | 7.0 | 0.00 | 0.00 | 0.00 | 68 | 1013.9 |
| 20260505115020 | 65 | 213 | 3.5 | 5.2 | 0.00 | 0.00 | 0.00 | 68 | 1013.8 |
| 20260505114024 | 65 | 219 | 3.5 | 4.3 | 0.00 | 0.00 | 0.00 | 69 | 1013.7 |
| 20260505113029 | 64 | 210 | 2.6 | 5.2 | 0.00 | 0.00 | 0.00 | 70 | 1013.7 |
| 20260505112016 | 64 | 194 | 4.3 | 7.0 | 0.00 | 0.00 | 0.00 | 69 | 1013.5 |
| 20260505111042 | 64 | 189 | 3.5 | 5.2 | 0.00 | 0.00 | 0.00 | 69 | 1013.5 |
| 20260505102028 | 63 | 191 | 4.3 | 5.2 | 0.00 | 0.00 | 0.00 | 72 | 1013.2 |
| 20260505101032 | 62 | 220 | 4.3 | 5.2 | 0.00 | 0.00 | 0.00 | 73 | 1013.2 |